[[{"header":{"parameterUnit":"m.s-1","parameterCategory":1,"la1":30.2991,"la2":30.254,"lo1":-89.0895,"lo2":-89.0444,"dy":0.0017,"dx":0.0017,"nx":28,"ny":28,"refTime":"2025-04-30T21:00:00:Z","depth":0,"parameterNumber":2,"parameterNumberName":"U-component_of_WINDS"},"data":[0,0,0,0,0,0,0,0,0,0,0,0,0,0,0,0,0,0,0,0,0,0,0,0,0,0,0,0,0,0,0,0,0,0,0,0,0,0,0,0,0,0,0,0,0,0,0,0,0,0,0,0,0,0,0,0,0,0,-1.0249,-1.0249,0,-1.0269,-1.0269,-1.0269,-1.0274,-1.0274,-1.0273,-1.0273,-1.0295,-1.0295,-1.0296,0,0,0,0,0,0,0,0,0,0,0,0,0,-1.0218,-1.0218,-1.0249,-1.0249,-1.025,-1.0269,-1.0269,-1.0269,-1.0274,-1.0274,-1.0273,-1.0273,-1.0294,-1.0295,-1.0296,0,0,0,0,0,0,0,0,0,0,0,0,0,-1.0234,-1.0218,-1.0249,-1.0254,-1.0255,-1.0269,-1.0269,-1.0269,-1.0274,-1.0274,-1.0273,-1.0273,-1.0294,-1.0295,-1.0296,-1.0307,0,0,-1.0299,-1.03,0,0,0,0,0,0,0,0,-1.0233,-1.0235,-1.0253,-1.0254,-1.0254,-1.0269,-1.0266,-1.0282,-1.0274,-1.0267,-1.0273,-1.0273,-1.0286,-1.0288,-1.0292,-1.0308,-1.0309,-1.03,-1.03,-1.0301,-1.0301,0,0,0,0,0,0,0,-1.0232,-1.0234,-1.0257,-1.0253,-1.0254,-1.0256,-1.0258,-1.0269,-1.0277,-1.0267,-1.0268,-1.027,-1.0287,-1.0291,-1.0293,-1.0309,-1.03,-1.03,-1.0301,-1.0302,-1.0337,-1.0337,0,0,0,0,0,0,-1.0229,-1.0233,-1.0256,-1.0258,-1.0243,-1.0257,-1.0259,-1.0264,-1.0277,-1.0279,-1.027,-1.027,-1.0289,-1.0291,-1.0293,-1.0308,-1.0301,-1.0302,-1.0302,-1.0336,-1.0337,-1.0337,0,0,0,0,0,0,-1.0229,-1.0231,-1.0256,-1.0245,-1.0249,-1.0258,-1.0263,-1.0265,-1.0269,-1.0279,-1.0281,-1.0273,-1.0289,-1.0292,-1.0304,-1.0308,-1.0302,-1.0303,-1.0336,-1.0336,-1.0337,-1.0335,0,0,0,0,0,0,-1.0228,-1.0231,-1.0235,-1.0245,-1.0249,-1.0265,-1.0264,-1.0265,-1.0271,-1.0271,-1.0282,-1.0284,-1.0289,-1.0302,-1.0305,-1.031,-1.0304,-1.0336,-1.0336,-1.0337,-1.0335,-1.0336,-1.0336,0,0,0,0,0,-1.0227,-1.0234,-1.0235,-1.0238,-1.0254,-1.0265,-1.0267,-1.0273,-1.0271,-1.0275,-1.0282,-1.0284,-1.0308,-1.0303,-1.0306,-1.0312,-1.0335,-1.0336,-1.0337,-1.0335,-1.0336,-1.0336,0,0,0,0,0,0,-1.0223,-1.0235,-1.0236,-1.0247,-1.0255,-1.0266,-1.0271,-1.0273,-1.0282,-1.0282,-1.0289,-1.0291,-1.0303,-1.0309,-1.0304,-1.0324,-1.0322,-1.0323,-1.0319,-1.032,-1.0321,-1.0319,-1.0305,0,0,0,0,0,-1.0224,-1.0231,-1.0241,-1.025,-1.0254,-1.0262,-1.0267,-1.027,-1.0279,-1.0283,-1.029,-1.0299,-1.0309,-1.0315,-1.0324,-1.0336,-1.0339,-1.0342,-1.0342,-1.0343,-1.0344,-1.0352,-1.0353,-1.0339,-1.0339,-1.0339,0,0,-1.0225,-1.0232,-1.0236,-1.0249,-1.0256,-1.0264,-1.0264,-1.0273,-1.028,-1.0284,-1.0296,-1.0302,-1.0312,-1.0325,-1.0331,-1.033,-1.0348,-1.0344,-1.0344,-1.0345,-1.0352,-1.0354,-1.0355,-1.034,-1.034,-1.0339,0,0,-1.0231,-1.0237,-1.0245,-1.0252,-1.0262,-1.0267,-1.0269,-1.028,-1.0284,-1.0296,-1.0299,-1.0308,-1.0324,-1.0332,-1.0338,-1.0348,-1.0351,-1.0351,-1.0354,-1.0362,-1.0363,-1.0364,-1.0368,-1.037,-1.0352,-1.0352,-1.0352,0,-1.0231,-1.0243,-1.0249,-1.0258,-1.0264,-1.0268,-1.0277,-1.0283,-1.0296,-1.03,-1.0299,-1.032,-1.0328,-1.0342,-1.0345,-1.035,-1.0353,-1.035,-1.0362,-1.0364,-1.0365,-1.0369,-1.037,-1.0352,-1.0352,-1.0352,-1.0352,0,-1.0243,-1.0252,-1.0257,-1.0269,-1.0276,-1.0284,-1.0292,-1.0299,-1.0302,-1.0308,-1.0321,-1.033,-1.0342,-1.0346,-1.0349,-1.0361,-1.036,-1.0361,-1.0359,-1.0366,-1.037,-1.0371,-1.0352,-1.0352,-1.0352,-1.0352,0,0,-1.0246,-1.0262,-1.0264,-1.027,-1.0282,-1.0289,-1.0299,-1.031,-1.0316,-1.0325,-1.0333,-1.0348,-1.0349,-1.0355,-1.036,-1.0367,-1.0376,-1.0367,-1.0367,-1.0368,-1.039,-1.039,-1.0391,-1.0377,-1.0378,-1.0378,-1.039,0,-1.0254,-1.027,-1.0276,-1.029,-1.0299,-1.0304,-1.0312,-1.0321,-1.0327,-1.0336,-1.0344,-1.0354,-1.0354,-1.0358,-1.0365,-1.0373,-1.038,-1.0372,-1.0386,-1.0387,-1.0383,-1.0393,-1.0392,-1.0403,-1.0391,-1.0391,-1.0392,0,-1.0265,-1.0274,-1.0288,-1.03,-1.0304,-1.0311,-1.0323,-1.0331,-1.0342,-1.0346,-1.0354,-1.0359,-1.037,-1.0368,-1.0384,-1.0379,-1.0385,-1.039,-1.0391,-1.0392,-1.0389,-1.0395,-1.0406,-1.0408,-1.0394,-1.0394,-1.0394,0,-1.0266,-1.0282,-1.0293,-1.0298,-1.0312,-1.0317,-1.0324,-1.0334,-1.0341,-1.0351,-1.0356,-1.0368,-1.0374,-1.0383,-1.0391,-1.0389,-1.0407,-1.0406,-1.0412,-1.0411,-1.0415,-1.0414,-1.0427,-1.0419,-1.0419,-1.0419,-1.0419,0,-1.0274,-1.0283,-1.0294,-1.0301,-1.0311,-1.0319,-1.0329,-1.0336,-1.0345,-1.0354,-1.036,-1.0368,-1.0378,-1.0388,-1.0395,-1.0408,-1.0411,-1.0415,-1.0416,-1.0414,-1.0414,-1.0418,-1.0417,-1.0419,-1.0419,-1.0419,-1.0419,0,-1.0277,-1.0285,-1.0297,-1.031,-1.0313,-1.032,-1.0331,-1.0339,-1.0346,-1.0357,-1.036,-1.0371,-1.0383,-1.0392,-1.0408,-1.0413,-1.0427,-1.0428,-1.0423,-1.0423,-1.0429,-1.0428,-1.0445,-1.0448,-1.0438,-1.0438,-1.0438,0,-1.0282,-1.0288,-1.0302,-1.0308,-1.0314,-1.0324,-1.0331,-1.0339,-1.0346,-1.0359,-1.0365,-1.0378,-1.0388,-1.0408,-1.0418,-1.043,-1.0432,-1.0437,-1.0434,-1.0432,-1.0433,-1.0432,-1.0433,-1.0438,-1.0438,-1.0438,-1.0438,0,-1.0289,-1.0292,-1.0302,-1.0313,-1.0321,-1.033,-1.034,-1.0345,-1.0355,-1.0363,-1.0375,-1.0383,-1.04,-1.0412,-1.0426,-1.0434,-1.0438,-1.0439,-1.0441,-1.0438,-1.0435,-1.0437,-1.0424,-1.0438,-1.0438,-1.0438,-1.0438,-1.0438,-1.0293,-1.0299,-1.031,-1.032,-1.0328,-1.0337,-1.0345,-1.0353,-1.0363,-1.0377,-1.0381,-1.0394,-1.0406,-1.0425,-1.0433,-1.0444,-1.0444,-1.0447,-1.0448,-1.0448,-1.0448,-1.0434,-1.0447,-1.0447,-1.0447,-1.0447,-1.0447,0,-1.03,-1.0307,-1.0317,-1.033,-1.0339,-1.0342,-1.0353,-1.036,-1.0371,-1.0381,-1.0392,-1.0406,-1.0419,-1.043,-1.0444,-1.0451,-1.0453,-1.0454,-1.0453,-1.0455,-1.0447,-1.0444,-1.0452,-1.0452,-1.0452,-1.0452,-1.0452,-1.0452,-1.0305,-1.0317,-1.0322,-1.0338,-1.0345,-1.0357,-1.0363,-1.0372,-1.0381,-1.0397,-1.0407,-1.0414,-1.0425,-1.044,-1.0452,-1.0455,-1.046,-1.0461,-1.0464,-1.0456,-1.0456,-1.0455,-1.0452,-1.0462,-1.0462,-1.0472,-1.0472,-1.0472]},{"header":{"parameterUnit":"m.s-1","parameterCategory":1,"la1":30.2991,"la2":30.254,"lo1":-89.0895,"lo2":-89.0444,"dy":0.0017,"dx":0.0017,"nx":28,"ny":28,"refTime":"2025-04-30T21:00:00:Z","depth":0,"parameterNumber":3,"parameterNumberName":"V-component_of_WINDS"},"data":[0,0,0,0,0,0,0,0,0,0,0,0,0,0,0,0,0,0,0,0,0,0,0,0,0,0,0,0,0,0,0,0,0,0,0,0,0,0,0,0,0,0,0,0,0,0,0,0,0,0,0,0,0,0,0,0,0,0,6.9866,6.9867,0,6.9906,6.9907,6.9907,6.9882,6.9881,6.988,6.9879,6.9916,6.9918,6.992,0,0,0,0,0,0,0,0,0,0,0,0,0,6.9764,6.9766,6.9866,6.9867,6.9867,6.9906,6.9907,6.9907,6.9883,6.9881,6.988,6.9878,6.9915,6.9917,6.992,0,0,0,0,0,0,0,0,0,0,0,0,0,6.9807,6.9767,6.9866,6.986,6.986,6.9906,6.9907,6.9907,6.9883,6.9881,6.9879,6.9878,6.9914,6.9917,6.992,6.9974,0,0,6.9929,6.9931,0,0,0,0,0,0,0,0,6.9804,6.981,6.986,6.986,6.986,6.9888,6.9884,6.9929,6.9883,6.9874,6.9879,6.9877,6.9907,6.9911,6.9922,6.9975,6.9977,6.993,6.9932,6.9933,6.9934,0,0,0,0,0,0,0,6.9801,6.9808,6.9882,6.9861,6.9861,6.9853,6.9857,6.9892,6.99,6.9875,6.9873,6.9878,6.9907,6.9919,6.9923,6.9978,6.993,6.9932,6.9934,6.9935,7.0076,7.0078,0,0,0,0,0,0,6.98,6.9806,6.9881,6.9883,6.9828,6.9857,6.9861,6.9881,6.9899,6.9901,6.988,6.9877,6.9915,6.9919,6.9924,6.9988,6.9933,6.9936,6.9938,7.0074,7.0076,7.0078,0,0,0,0,0,0,6.9797,6.9806,6.9879,6.9844,6.9853,6.986,6.9882,6.9882,6.9894,6.9903,6.9904,6.9891,6.9914,6.992,6.9962,6.9988,6.9937,6.994,7.0072,7.0075,7.0077,7.0116,0,0,0,0,0,0,6.9795,6.9806,6.9828,6.9845,6.9855,6.9918,6.9884,6.9884,6.99,6.9897,6.9914,6.9915,6.9913,6.9957,6.9965,6.9992,6.9942,7.0069,7.0073,7.0076,7.0112,7.0119,7.0126,0,0,0,0,0,6.9791,6.9836,6.9829,6.9838,6.9883,6.9919,6.9925,6.9922,6.9903,6.9924,6.9929,6.9915,6.9984,6.9962,6.997,6.9998,7.0068,7.0072,7.0076,7.0109,7.0118,7.0126,0,0,0,0,0,0,6.982,6.9838,6.983,6.9883,6.99,6.9915,6.9942,6.9932,6.9954,6.995,6.9944,6.9948,6.9992,6.9999,6.9974,7.0051,7.0023,7.0029,7.0045,7.0053,7.006,7.0057,6.9945,0,0,0,0,0,6.9833,6.9863,6.9876,6.9921,6.993,6.9935,6.9951,6.9947,6.9964,6.9971,6.9979,6.9995,7.002,7.0037,7.0061,7.0113,7.0115,7.0136,7.0143,7.0149,7.0154,7.0181,7.019,7.0092,7.0092,7.0092,0,0,6.9859,6.9873,6.9892,6.9928,6.994,6.997,6.9941,6.9974,6.9995,6.9975,7.0016,7.0023,7.004,7.0087,7.0108,7.0094,7.0181,7.0154,7.0158,7.0161,7.0186,7.0195,7.0204,7.0095,7.0094,7.0094,0,0,6.9923,6.9936,6.9975,6.9988,7.0009,7.0011,7.002,7.0037,7.0041,7.0082,7.0067,7.0092,7.0136,7.0149,7.0161,7.0228,7.0215,7.0235,7.0271,7.0298,7.0305,7.0312,7.0336,7.0344,7.0241,7.0241,7.0241,0,6.9952,6.9998,6.9996,7.003,7.0045,7.0029,7.0067,7.008,7.0107,7.0117,7.0101,7.0156,7.0166,7.0216,7.0232,7.0242,7.0252,7.0234,7.0305,7.0312,7.0318,7.034,7.0349,7.0243,7.0243,7.0243,7.0242,0,7.0033,7.0065,7.0094,7.0121,7.0139,7.0175,7.0176,7.0195,7.019,7.0193,7.0234,7.0246,7.0272,7.0283,7.0278,7.0331,7.0322,7.0306,7.0277,7.033,7.035,7.0359,7.0246,7.0246,7.0245,7.0244,0,0,7.0117,7.0142,7.0153,7.0164,7.0185,7.0209,7.0243,7.0269,7.0285,7.0303,7.0331,7.0368,7.0353,7.0367,7.0363,7.0386,7.0437,7.0366,7.0367,7.0379,7.0496,7.0509,7.0519,7.0429,7.043,7.0432,7.0495,0,7.0181,7.0243,7.0241,7.0298,7.0327,7.0311,7.0341,7.0356,7.036,7.0383,7.0387,7.0413,7.0392,7.04,7.0422,7.0426,7.0461,7.0422,7.0454,7.0455,7.045,7.053,7.0543,7.0602,7.0503,7.0504,7.0505,0,7.0265,7.0288,7.0348,7.0363,7.0375,7.0402,7.0425,7.0448,7.0464,7.0465,7.0481,7.0472,7.0505,7.0476,7.0521,7.0494,7.0507,7.0511,7.0513,7.0516,7.0483,7.0534,7.0621,7.063,7.0518,7.0517,7.0516,0,7.032,7.0365,7.0406,7.0417,7.0436,7.0455,7.0464,7.0478,7.0494,7.0514,7.0523,7.0546,7.0559,7.0576,7.0574,7.0553,7.0619,7.059,7.062,7.062,7.0635,7.0634,7.0724,7.0643,7.0643,7.0643,7.0643,0,7.0392,7.0429,7.0431,7.0457,7.0497,7.0494,7.0533,7.054,7.0552,7.0578,7.0565,7.0589,7.0584,7.0607,7.0605,7.0642,7.0648,7.0649,7.0648,7.065,7.065,7.0658,7.0654,7.0645,7.0645,7.0644,7.0644,0,7.0461,7.0464,7.0508,7.0522,7.0527,7.0556,7.0568,7.0591,7.0594,7.0626,7.0633,7.0636,7.0663,7.0662,7.0692,7.0691,7.0736,7.073,7.0731,7.073,7.076,7.0757,7.0859,7.0872,7.0782,7.0783,7.0784,0,7.0507,7.0535,7.0553,7.057,7.058,7.0607,7.0623,7.0619,7.0636,7.0656,7.0677,7.0702,7.0723,7.0766,7.077,7.0792,7.0787,7.0821,7.079,7.0791,7.0787,7.0786,7.0788,7.0827,7.0828,7.0829,7.083,0,7.0588,7.0588,7.0612,7.0637,7.0657,7.0675,7.0693,7.0707,7.0705,7.0724,7.0752,7.0768,7.0798,7.0823,7.0845,7.0852,7.084,7.0839,7.0847,7.085,7.0849,7.085,7.0748,7.0837,7.0836,7.0836,7.0835,7.0835,7.0647,7.0671,7.0687,7.0714,7.0727,7.0743,7.0766,7.0771,7.0795,7.082,7.0816,7.0847,7.086,7.0888,7.0897,7.092,7.0908,7.092,7.0923,7.0926,7.0929,7.0846,7.0924,7.0924,7.0924,7.0923,7.0923,0,7.0728,7.0737,7.0762,7.0787,7.0808,7.0796,7.0814,7.0832,7.0859,7.0873,7.0894,7.0925,7.0949,7.0955,7.0978,7.0995,7.099,7.1001,7.1,7.1001,7.0939,7.0929,7.1004,7.1004,7.1004,7.1004,7.1004,7.1004,7.0772,7.0812,7.0814,7.0859,7.0868,7.0899,7.091,7.0924,7.0936,7.0971,7.0992,7.0996,7.1006,7.103,7.1051,7.1052,7.106,7.1073,7.1072,7.1014,7.1006,7.0998,7.0989,7.1075,7.1076,7.1133,7.1133,7.1134]}]]